MST,Max TemperatureF,Mean TemperatureF,Min TemperatureF,Max Dew PointF,MeanDew PointF,Min DewpointF,Max Humidity, Mean Humidity, Min Humidity, Max Sea Level PressureIn, Mean Sea Level PressureIn, Min Sea Level PressureIn, Max VisibilityMiles, Mean VisibilityMiles, Min VisibilityMiles, Max Wind SpeedMPH, Mean Wind SpeedMPH, Max Gust SpeedMPH,PrecipitationIn, CloudCover, Events, WindDirDegrees
2013-4-1,80,68,55,39,32,26,51,28,14,29.94,29.88,29.83,10,10,10,15,4,23,0.00,0,,201
2013-4-2,82,68,53,31,26,22,36,23,11,29.91,29.84,29.77,10,10,10,20,4,29,0.00,0,,238
2013-4-3,84,72,61,34,30,28,32,22,14,29.97,29.91,29.86,10,10,10,12,4,,0.00,0,,12
2013-4-4,86,74,63,34,29,21,33,21,9,29.99,29.92,29.85,10,10,10,7,2,,0.00,0,,300
2013-4-5,84,72,61,39,31,23,31,22,11,29.89,29.83,29.77,10,10,10,18,5,24,0.00,0,,181
2013-4-6,82,70,59,34,31,28,38,23,14,29.90,29.83,29.75,10,10,10,13,4,20,0.00,0,,153
2013-4-7,84,70,57,37,34,30,40,26,15,29.82,29.73,29.63,10,10,10,12,4,20,0.00,0,,197
2013-4-8,78,66,55,50,39,35,59,36,23,29.62,29.46,29.33,10,9,2,32,13,41,0.04,4,Rain,212
2013-4-9,69,60,52,46,31,20,80,38,18,29.85,29.67,29.50,10,10,10,17,10,24,0.01,6,Rain,276
2013-4-10,73,60,48,30,25,21,38,26,14,29.96,29.90,29.84,10,10,6,16,8,24,0.00,0,,356
2013-4-11,78,65,52,30,26,21,40,24,12,29.91,29.81,29.70,10,10,10,12,4,,0.00,0,,96
2013-4-12,82,70,57,28,25,21,31,18,11,29.79,29.71,29.65,10,10,10,9,4,,0.00,0,,138
2013-4-13,87,71,55,29,27,23,33,19,10,29.77,29.70,29.61,10,10,10,20,5,25,0.00,0,,203
2013-4-14,84,72,59,33,30,27,32,21,12,29.74,29.64,29.55,10,10,10,18,7,24,0.00,0,,216
2013-4-15,82,70,59,39,35,32,41,27,19,29.71,29.65,29.59,10,10,10,21,6,30,0.00,0,,218
2013-4-16,77,68,60,45,36,15,45,31,14,29.75,29.70,29.65,10,10,10,21,7,30,0.00,0,,239
2013-4-17,72,64,55,30,18,6,37,19,8,29.98,29.83,29.73,10,10,10,21,10,28,0.00,3,,272
2013-4-18,73,60,46,15,10,6,26,14,7,30.11,30.05,29.99,10,10,10,13,6,18,0.00,0,,346
2013-4-19,79,66,53,14,7,4,18,10,6,30.13,30.02,29.88,10,10,10,13,5,,0.00,0,,164
2013-4-20,87,71,55,18,15,12,20,12,6,29.92,29.85,29.76,10,10,10,18,5,25,0.00,0,,238
2013-4-21,89,74,59,21,19,13,21,13,6,29.96,29.88,29.82,10,10,10,12,3,,0.00,0,,207
2013-4-22,90,74,57,25,21,18,26,14,8,29.88,29.79,29.67,10,10,10,14,4,22,0.00,0,,199
2013-4-23,88,74,60,27,22,12,23,14,8,29.81,29.74,29.69,10,10,10,12,4,,0.00,0,,195
2013-4-24,87,74,60,30,24,19,28,16,9,29.85,29.79,29.74,10,10,10,10,5,20,0.00,0,,183
2013-4-25,78,70,61,39,32,27,30,23,19,29.96,29.85,29.78,10,10,10,21,8,30,0.00,0,,202
2013-4-26,88,72,57,35,31,24,41,22,10,30.06,29.99,29.92,10,10,10,13,4,,0.00,0,,287
2013-4-27,93,76,60,29,24,17,30,15,6,29.99,29.90,29.80,10,10,10,14,4,16,0.00,0,,284
2013-4-28,96,80,64,25,18,12,18,10,5,29.89,29.75,29.65,10,10,10,12,4,16,0.00,0,,198
2013-4-29,99,82,64,23,20,18,19,11,5,29.72,29.64,29.54,10,10,10,15,4,18,0.00,0,,213
2013-4-30,97,80,64,24,21,13,19,11,6,29.69,29.64,29.59,10,10,10,23,8,32,0.00,0,,186